Location: Palmerston North
(40.3500°S, 175.6170°E)
Time: 17:17:46
(UTC+13:00)

CZ-2C R/B - Pass Details

Date: 24 January 2019
Orbit: 785 x 870 km, 98.3° (Epoch: 23 October)

Event Time Altitude Azimuth Distance (km) Brightness Sun altitude
Exits shadow 21:49:20 13° 32° (NNE) 2,250 4.3 -11.5°
Maximum altitude 21:54:07 57° 107° (ESE) 979 2.9 -12.2°
Drops below altitude 10° 21:59:24 10° 185° (S) 2,438 5.8 -13.0°
Sets 22:01:46 0° 188° (S) 3,365 6.6 -13.3°
